SVA236 LSGG-OEJN

Flight info

Callsign SVA236
Flight time N/A
Altitude 35000
Route MEDAM DCT NITAM DCT MOGBO DCT ROSKI DCT POLIT DCT BELIX DCT SALUN N705 BOPIX N710 TAKRI P751 LXR M999 MUVOL
Aircraft A320/M-SDE3FGHIRWY/LB1

Departure

Time N/A
Airport Geneva International Airport (LSGG)

Arrival

Time 2026-04-28 17:11
Airport King Abdulaziz International Airport (OEJN)
Time Latitude Longitude Altitude Speed Heading
2026-04-28 16:20 30.37068 27.95067 34998 ft 521 kts 147°
2026-04-28 16:20 30.31379 28.00271 35002 ft 521 kts 147°
2026-04-28 16:21 30.20000 28.10655 34998 ft 520 kts 147°
2026-04-28 16:21 30.08635 28.20998 34992 ft 519 kts 147°
2026-04-28 16:22 29.97264 28.31323 34984 ft 519 kts 147°
2026-04-28 16:22 29.86310 28.41703 34950 ft 526 kts 137°
2026-04-28 16:23 29.77189 28.54972 34961 ft 529 kts 131°
2026-04-28 16:23 29.68194 28.68368 34964 ft 529 kts 131°
2026-04-28 16:24 29.59248 28.81658 34967 ft 529 kts 131°
2026-04-28 16:24 29.50239 28.95032 34944 ft 529 kts 131°
2026-04-28 16:25 29.40962 29.08069 34966 ft 522 kts 143°
2026-04-28 16:25 29.29578 29.18104 34976 ft 516 kts 149°
2026-04-28 16:26 29.18137 29.28067 34973 ft 516 kts 149°
2026-04-28 16:26 29.06639 29.37893 34963 ft 515 kts 150°
2026-04-28 16:27 28.95006 29.47469 34978 ft 515 kts 150°
2026-04-28 16:28 28.77594 29.61908 34980 ft 515 kts 151°
2026-04-28 16:28 28.65990 29.71496 35010 ft 515 kts 151°
2026-04-28 16:29 28.48640 29.85762 34978 ft 515 kts 152°
2026-04-28 16:30 28.31223 30.00034 35015 ft 514 kts 152°
2026-04-28 16:30 28.19598 30.09524 34988 ft 514 kts 152°
2026-04-28 16:31 28.07979 30.18997 35027 ft 514 kts 152°
2026-04-28 16:31 27.96365 30.28416 35031 ft 514 kts 152°
2026-04-28 16:32 27.84734 30.37828 35010 ft 514 kts 153°
2026-04-28 16:32 27.67251 30.51959 35044 ft 515 kts 153°
2026-04-28 16:33 27.57549 30.59750 35059 ft 515 kts 153°
2026-04-28 16:33 27.43905 30.70720 35052 ft 516 kts 153°
2026-04-28 16:34 27.32184 30.80096 35071 ft 516 kts 153°
2026-04-28 16:34 27.20478 30.89446 35045 ft 516 kts 154°
2026-04-28 16:35 27.08816 30.98713 35031 ft 516 kts 154°
2026-04-28 16:35 27.03068 31.03630 35032 ft 528 kts 143°
2026-04-28 16:35 26.98259 31.09983 35040 ft 537 kts 135°
2026-04-28 16:36 26.88814 31.22972 35034 ft 537 kts 136°
2026-04-28 16:36 26.79347 31.35936 34996 ft 538 kts 136°
2026-04-28 16:37 26.69858 31.48929 34982 ft 538 kts 136°
2026-04-28 16:38 26.55606 31.68373 34920 ft 539 kts 136°
2026-04-28 16:38 26.46097 31.81302 34855 ft 539 kts 136°
2026-04-28 16:39 26.36626 31.94145 34888 ft 540 kts 136°
2026-04-28 16:39 26.27066 32.07063 34905 ft 540 kts 136°
2026-04-28 16:40 26.17491 32.19955 34904 ft 540 kts 137°
2026-04-28 16:40 26.07900 32.32843 34872 ft 539 kts 137°
2026-04-28 16:41 25.88798 32.58387 34892 ft 540 kts 137°
2026-04-28 16:41 25.70272 32.84687 34895 ft 545 kts 130°
2026-04-28 16:42 25.53611 33.12545 34918 ft 544 kts 130°
2026-04-28 16:42 25.36872 33.40391 34903 ft 542 kts 130°
2026-04-28 16:43 25.20102 33.68093 34911 ft 541 kts 130°
2026-04-28 16:43 25.03321 33.95683 34890 ft 540 kts 130°
2026-04-28 16:44 24.86521 34.23131 34901 ft 539 kts 131°
2026-04-28 16:44 24.69760 34.50376 34905 ft 535 kts 131°
2026-04-28 16:45 24.53071 34.77367 34911 ft 531 kts 131°
2026-04-28 16:45 24.36453 35.04043 34879 ft 528 kts 131°
2026-04-28 16:46 24.19868 35.30552 34906 ft 526 kts 131°
2026-04-28 16:46 24.03421 35.56699 34885 ft 524 kts 131°
2026-04-28 16:47 23.86866 35.82860 34890 ft 522 kts 131°
2026-04-28 16:47 23.70312 36.08877 34901 ft 521 kts 131°
2026-04-28 16:48 23.61696 36.22385 34899 ft 520 kts 131°
2026-04-28 16:48 23.53403 36.35308 34895 ft 520 kts 131°
2026-04-28 16:49 23.45130 36.48216 34890 ft 518 kts 130°
2026-04-28 16:49 23.36855 36.61052 34893 ft 516 kts 131°
2026-04-28 16:50 23.28598 36.73830 34891 ft 515 kts 131°
2026-04-28 16:50 23.21757 36.84412 34887 ft 514 kts 131°
2026-04-28 16:51 23.13520 36.97137 34885 ft 513 kts 131°
2026-04-28 16:51 23.05282 37.09800 34877 ft 512 kts 131°
2026-04-28 16:52 22.97058 37.22398 34885 ft 511 kts 131°
2026-04-28 16:52 22.88843 37.34922 34895 ft 508 kts 131°
2026-04-28 16:53 22.80659 37.47372 34892 ft 506 kts 131°
2026-04-28 16:53 22.72488 37.59757 34888 ft 504 kts 131°
2026-04-28 16:54 22.64368 37.72130 34871 ft 504 kts 131°
2026-04-28 16:54 22.56267 37.84485 34873 ft 503 kts 131°
2026-04-28 16:54 22.52204 37.90657 34544 ft 504 kts 131°
2026-04-28 16:55 22.48144 37.96813 32674 ft 521 kts 131°
2026-04-28 16:55 22.43864 38.03286 30432 ft 536 kts 130°
2026-04-28 16:55 22.39590 38.09774 28945 ft 528 kts 130°
2026-04-28 16:55 22.35386 38.16158 27547 ft 516 kts 130°
2026-04-28 16:56 22.31306 38.22347 26383 ft 498 kts 130°
2026-04-28 16:56 22.27307 38.28328 25202 ft 484 kts 131°
2026-04-28 16:56 22.23302 38.34045 24103 ft 470 kts 133°
2026-04-28 16:56 22.19378 38.39568 22948 ft 458 kts 132°
2026-04-28 16:57 22.15605 38.44927 21173 ft 438 kts 131°
2026-04-28 16:57 22.12131 38.49918 20318 ft 396 kts 131°
2026-04-28 16:57 22.08947 38.54487 19380 ft 372 kts 131°
2026-04-28 16:57 22.05821 38.58916 18446 ft 368 kts 131°
2026-04-28 16:58 22.02582 38.63107 17448 ft 357 kts 141°
2026-04-28 16:58 21.98729 38.66380 16521 ft 352 kts 146°
2026-04-28 16:58 21.94853 38.69599 15570 ft 351 kts 146°
2026-04-28 16:58 21.90985 38.72826 14646 ft 351 kts 146°
2026-04-28 16:59 21.88423 38.74955 14024 ft 351 kts 146°
2026-04-28 16:59 21.86490 38.76557 13538 ft 351 kts 146°
2026-04-28 16:59 21.84559 38.78157 13009 ft 349 kts 146°
2026-04-28 16:59 21.82634 38.79749 12509 ft 348 kts 146°
2026-04-28 17:00 21.80737 38.81322 12170 ft 341 kts 146°
2026-04-28 17:00 21.78780 38.82943 11676 ft 339 kts 147°
2026-04-28 17:00 21.75039 38.86034 10686 ft 338 kts 145°
2026-04-28 17:00 21.71390 38.89055 10246 ft 318 kts 147°
2026-04-28 17:01 21.68263 38.91652 9974 ft 299 kts 145°
2026-04-28 17:01 21.66626 38.93003 9735 ft 294 kts 147°
2026-04-28 17:01 21.65000 38.94342 9319 ft 295 kts 147°
2026-04-28 17:01 21.63370 38.95683 8919 ft 293 kts 147°
2026-04-28 17:02 21.61742 38.97023 8431 ft 295 kts 146°
2026-04-28 17:02 21.60120 38.98359 7935 ft 292 kts 147°
2026-04-28 17:02 21.58524 38.99677 7352 ft 287 kts 146°
2026-04-28 17:02 21.56947 39.00980 6843 ft 284 kts 144°
2026-04-28 17:03 21.53828 39.03556 5863 ft 286 kts 145°
2026-04-28 17:03 21.52259 39.04848 5487 ft 283 kts 145°
2026-04-28 17:03 21.50692 39.06136 5067 ft 282 kts 144°
2026-04-28 17:04 21.47630 39.08656 3947 ft 274 kts 145°
2026-04-28 17:04 21.46259 39.10072 3448 ft 276 kts 124°
2026-04-28 17:05 21.45709 39.13849 3002 ft 249 kts 71°
2026-04-28 17:05 21.46407 39.15474 3001 ft 235 kts 59°
2026-04-28 17:05 21.47146 39.17005 2991 ft 225 kts 62°
2026-04-28 17:06 21.48521 39.19876 2547 ft 210 kts 57°
2026-04-28 17:06 21.49180 39.21256 2243 ft 205 kts 59°
2026-04-28 17:06 21.50811 39.23520 2005 ft 183 kts 20°
2026-04-28 17:07 21.52022 39.23738 2005 ft 175 kts 352°
2026-04-28 17:07 21.53175 39.23361 2006 ft 173 kts 340°
2026-04-28 17:07 21.54308 39.22912 2007 ft 169 kts 340°
2026-04-28 17:07 21.55319 39.22514 2000 ft 144 kts 339°
2026-04-28 17:08 21.56218 39.22160 1999 ft 132 kts 339°
2026-04-28 17:08 21.57093 39.21816 1929 ft 133 kts 339°
2026-04-28 17:08 21.57943 39.21482 1811 ft 132 kts 339°
2026-04-28 17:08 21.58787 39.21150 1661 ft 127 kts 341°
2026-04-28 17:09 21.59609 39.20826 1494 ft 125 kts 342°
2026-04-28 17:09 21.60425 39.20505 1345 ft 125 kts 341°
2026-04-28 17:09 21.61255 39.20178 1177 ft 127 kts 341°
2026-04-28 17:09 21.62079 39.19853 1018 ft 125 kts 339°
2026-04-28 17:10 21.62895 39.19532 863 ft 125 kts 341°
2026-04-28 17:10 21.63713 39.19206 717 ft 126 kts 340°
2026-04-28 17:10 21.64540 39.18864 561 ft 125 kts 339°
2026-04-28 17:10 21.65369 39.18540 360 ft 130 kts 341°
2026-04-28 17:11 21.66201 39.18222 220 ft 125 kts 340°
2026-04-28 17:11 21.67008 39.17900 52 ft 118 kts 340°
2026-04-28 17:11 21.67699 39.17633 34 ft 90 kts 340°
2026-04-28 17:11 21.68127 39.17470 29 ft 41 kts 339°
2026-04-28 17:12 21.68286 39.17380 28 ft 16 kts 319°
2026-04-28 17:12 21.68316 39.17347 27 ft 3 kts 309°
2026-04-28 17:12 21.68339 39.17315 27 ft 7 kts 308°
2026-04-28 17:12 21.68377 39.17263 27 ft 10 kts 308°
2026-04-28 17:13 21.68416 39.17208 27 ft 10 kts 306°
2026-04-28 17:13 21.68455 39.17151 28 ft 10 kts 306°
2026-04-28 17:13 21.68501 39.17082 27 ft 12 kts 291°
2026-04-28 17:13 21.68460 39.17019 28 ft 11 kts 184°
2026-04-28 17:14 21.68386 39.17033 28 ft 10 kts 159°
2026-04-28 17:14 21.68324 39.17058 29 ft 9 kts 160°
2026-04-28 17:14 21.68268 39.17080 29 ft 8 kts 160°
2026-04-28 17:14 21.68220 39.17099 29 ft 7 kts 159°
2026-04-28 17:15 21.68173 39.17117 29 ft 11 kts 160°
2026-04-28 17:15 21.68062 39.17161 30 ft 16 kts 160°
2026-04-28 17:15 21.68052 39.17164 30 ft 1 kts 161°
2026-04-28 17:15 21.68051 39.17165 28 ft 0 kts 160°
2026-04-28 17:16 21.68050 39.17165 28 ft 1 kts 160°
2026-04-28 17:16 21.68021 39.17176 30 ft 7 kts 160°
2026-04-28 17:16 21.67977 39.17193 30 ft 6 kts 160°
2026-04-28 17:16 21.67941 39.17208 30 ft 5 kts 159°
2026-04-28 17:17 21.67911 39.17220 30 ft 4 kts 160°
2026-04-28 17:17 21.67860 39.17240 31 ft 12 kts 160°
2026-04-28 17:17 21.67784 39.17270 31 ft 11 kts 160°
2026-04-28 17:17 21.67716 39.17296 32 ft 10 kts 160°
2026-04-28 17:18 21.67658 39.17320 32 ft 8 kts 158°
2026-04-28 17:18 21.67567 39.17357 32 ft 19 kts 160°
2026-04-28 17:18 21.67446 39.17406 33 ft 18 kts 159°
2026-04-28 17:18 21.67332 39.17451 31 ft 17 kts 162°
2026-04-28 17:19 21.67225 39.17477 33 ft 14 kts 201°
2026-04-28 17:19 21.67171 39.17401 33 ft 12 kts 227°
2026-04-28 17:19 21.67114 39.17338 34 ft 11 kts 225°
2026-04-28 17:19 21.67054 39.17289 32 ft 10 kts 213°
2026-04-28 17:20 21.66990 39.17270 34 ft 9 kts 186°
2026-04-28 17:20 21.66957 39.17255 34 ft 1 kts 220°
2026-04-28 17:20 21.66952 39.17247 32 ft 3 kts 239°
2026-04-28 17:20 21.66946 39.17225 34 ft 3 kts 253°
2026-04-28 17:21 21.66938 39.17197 34 ft 6 kts 252°
2026-04-28 17:21 21.66928 39.17164 32 ft 0 kts 251°